Precipitable_Water
0.23 0.28 0.31 0.31 0.35 0.44 0.62 0.78 0.85 0.93 1.07 1.14 1.21 1.24 1.22 1.03 1.02 1.18 1.32 1.44 1.48 1.52 1.56 1.57 1.56 1.48 1.42 1.28 1.02 0.93 0.94 0.97
0.27 0.30 0.33 0.34 0.43 0.53 0.70 0.78 0.87 0.95 1.01 1.03 1.10 1.09 1.09 0.94 1.04 1.20 1.32 1.40 1.47 1.56 1.60 1.52 1.55 1.48 1.40 1.32 1.02 0.88 0.94 1.05
0.33 0.38 0.37 0.41 0.46 0.63 0.79 0.84 0.90 0.98 1.06 1.10 1.13 1.17 1.02 0.97 1.10 1.23 1.34 1.41 1.47 1.54 1.55 1.52 1.50 1.44 1.41 1.27 0.96 0.91 0.94 1.01
0.37 0.36 0.41 0.48 0.54 0.66 0.78 0.88 0.97 1.06 1.12 1.15 1.16 1.18 0.98 0.92 1.03 1.17 1.31 1.38 1.46 1.52 1.54 1.51 1.49 1.47 1.35 1.23 0.96 0.91 0.82 1.01
0.43 0.42 0.40 0.54 0.60 0.74 0.82 0.93 1.00 1.08 1.14 1.10 1.10 0.99 0.80 0.88 1.00 1.15 1.25 1.33 1.42 1.51 1.51 1.51 1.48 1.45 1.32 1.23 0.94 0.91 0.89 0.92
0.46 0.47 0.51 0.59 0.67 0.74 0.84 0.96 1.02 1.09 1.09 1.09 1.10 0.98 0.89 0.95 1.02 1.09 1.19 1.28 1.39 1.42 1.49 1.46 1.47 1.43 1.29 1.23 0.94 0.98 1.02 0.98
0.45 0.53 0.58 0.61 0.79 0.79 0.87 0.94 1.02 1.12 1.13 1.12 1.07 0.98 0.86 0.86 0.96 1.02 1.13 1.25 1.36 1.43 1.47 1.48 1.45 1.36 1.26 1.24 1.01 0.89 0.89 0.91
0.43 0.45 0.53 0.62 0.72 0.85 0.88 0.94 0.98 1.10 1.13 1.15 1.11 1.00 0.88 0.87 0.94 1.01 1.11 1.20 1.29 1.37 1.41 1.41 1.42 1.43 1.31 1.24 1.03 0.86 0.83 0.82
0.43 0.46 0.52 0.60 0.71 0.84 0.92 0.95 0.99 1.07 1.13 1.17 1.17 1.04 0.87 0.91 0.97 1.04 1.14 1.25 1.34 1.40 1.41 1.40 1.41 1.40 1.35 1.32 1.17 0.93 0.86 0.86
0.48 0.52 0.56 0.60 0.67 0.79 0.96 0.99 1.01 1.05 1.14 1.19 1.17 1.04 0.88 0.90 0.97 1.09 1.19 1.29 1.37 1.45 1.43 1.42 1.38 1.32 1.30 1.25 1.27 1.12 0.93 0.86
0.47 0.56 0.62 0.67 0.74 0.84 1.00 1.05 1.02 1.03 1.14 1.19 1.15 0.97 0.90 0.94 0.99 1.04 1.16 1.27 1.38 1.42 1.43 1.46 1.40 1.35 1.31 1.26 1.25 1.28 1.13 0.95
0.47 0.53 0.63 0.67 0.78 0.93 1.05 1.08 1.04 1.02 1.12 1.17 1.13 0.89 0.88 0.92 0.96 1.04 1.12 1.19 1.27 1.32 1.39 1.43 1.42 1.41 1.41 1.39 1.35 1.32 1.24 1.16
0.51 0.55 0.58 0.66 0.73 0.94 1.09 1.11 1.05 1.05 1.15 1.16 1.07 0.85 0.86 0.91 0.97 1.04 1.10 1.11 1.20 1.31 1.34 1.36 1.43 1.44 1.42 1.40 1.35 1.34 1.29 1.22
0.50 0.52 0.55 0.67 0.74 0.91 1.10 1.12 1.09 1.10 1.15 1.16 0.92 0.80 0.83 0.91 0.98 1.03 1.06 1.09 1.17 1.24 1.29 1.31 1.36 1.41 1.39 1.40 1.41 1.34 1.35 1.33
0.48 0.53 0.62 0.73 0.81 0.94 1.06 1.12 1.13 1.17 1.17 1.11 0.88 0.80 0.84 0.93 0.99 1.02 1.03 1.07 1.11 1.19 1.23 1.28 1.33 1.39 1.41 1.39 1.37 1.37 1.37 1.35
0.49 0.56 0.71 0.80 0.84 0.97 1.07 1.12 1.16 1.21 1.20 1.04 0.90 0.83 0.89 0.95 0.98 1.01 1.02 1.04 1.09 1.13 1.16 1.22 1.26 1.33 1.37 1.35 1.31 1.30 1.29 1.25
0.57 0.65 0.75 0.80 0.87 0.95 1.05 1.08 1.17 1.24 1.20 1.04 0.92 0.84 0.89 0.94 0.97 1.00 1.01 1.01 1.04 1.06 1.06 1.12 1.18 1.20 1.25 1.31 1.29 1.25 1.21 1.17
0.58 0.66 0.74 0.78 0.86 0.95 1.03 1.09 1.14 1.21 1.19 1.05 0.92 0.85 0.89 0.93 0.97 0.99 0.98 0.97 0.99 0.98 1.00 1.02 1.03 1.10 1.17 1.17 1.20 1.21 1.14 1.14
0.63 0.69 0.72 0.78 0.86 0.94 1.03 1.11 1.14 1.16 1.16 1.05 0.94 0.87 0.89 0.95 0.96 0.94 0.95 0.97 0.95 0.93 0.94 0.95 0.96 0.97 1.04 1.08 1.11 1.09 1.07 1.02
Wind_Speed
27 29 30 31 31 31 29 27 26 27 26 25 24 23 22 21 20 20 21 23 26 28 31 36 38 38 37 36 35 34 32 29
27 28 28 29 29 28 26 25 25 25 24 23 23 22 21 20 20 20 22 23 27 30 36 35 39 41 40 38 37 36 33 31
25 26 27 27 26 24 24 25 25 26 24 23 21 21 20 19 19 19 21 23 26 30 36 41 39 42 42 41 41 37 35 33
24 25 25 25 24 23 23 24 26 26 24 22 20 19 18 18 18 18 18 19 17 26 35 39 39 41 42 43 41 40 36 35
23 25 24 25 24 22 23 24 26 26 25 23 21 19 17 17 16 15 14 13 12 17 33 39 38 40 41 42 40 39 38 35
22 22 23 24 22 22 22 24 25 26 25 23 21 19 17 15 14 14 12 11 12 12 25 35 39 39 42 41 40 39 38 36
21 22 22 22 20 20 22 25 26 26 25 24 22 19 17 15 14 14 14 12 14 16 20 29 38 41 41 40 37 37 37 36
22 23 22 21 19 20 22 24 26 27 27 25 22 20 17 16 14 15 14 15 16 19 20 25 35 39 40 38 37 37 37 36
22 23 23 23 21 22 24 25 26 27 27 26 23 20 17 16 15 14 16 15 18 20 22 24 31 38 38 37 36 36 36 36
23 24 24 24 24 24 26 28 28 27 28 26 23 21 18 16 14 14 15 16 18 19 24 25 29 35 37 39 36 36 37 36
24 24 24 25 24 24 26 29 30 28 29 27 24 21 18 16 15 14 15 16 18 21 24 26 31 35 36 39 38 38 37 37
24 25 24 24 23 23 25 27 29 29 30 27 24 21 19 16 15 13 14 16 18 21 23 26 30 39 40 40 40 39 39 37
23 24 25 25 24 23 26 26 28 30 30 28 24 22 19 17 15 13 13 14 16 18 19 23 30 37 41 43 42 41 39 37
23 25 27 25 24 20 27 27 27 31 30 28 24 22 20 18 15 13 11 11 13 14 14 15 21 29 36 40 39 41 40 39
24 24 24 23 21 19 21 27 28 32 30 28 25 23 21 19 16 13 11 9 10 11 10 9 10 20 26 30 32 36 35 34
23 23 20 18 17 18 20 25 28 31 30 28 26 23 22 19 17 14 11 9 8 9 8 8 7 11 21 22 24 28 29 26
20 19 18 15 17 18 20 23 29 31 30 29 27 24 23 21 18 16 13 10 8 8 8 7 8 8 11 16 19 22 22 22
17 17 16 16 15 18 20 23 26 30 30 29 28 25 24 22 20 17 15 12 10 9 8 8 8 9 11 13 17 20 17 17
17 16 16 15 14 17 20 22 26 30 30 30 29 27 25 24 21 19 16 14 12 10 9 9 9 9 11 14 15 15 15 14
Wind_Direction
276 280 281 281 279 277 267 261 251 240 237 241 247 255 267 274 271 261 251 248 246 242 227 216 210 208 203 200 198 197 196 196
280 283 282 285 281 274 262 253 241 233 234 238 245 254 266 271 269 262 255 253 255 244 220 212 209 206 204 202 198 197 198 197
285 288 287 286 282 270 259 248 235 232 234 238 247 252 266 269 267 264 262 263 262 236 219 209 208 204 204 202 200 200 200 200
287 292 291 288 280 268 257 242 233 231 232 235 243 254 267 267 265 264 265 266 261 225 211 207 204 201 200 201 202 202 203 204
291 294 292 291 280 266 254 238 233 230 230 234 239 252 263 266 263 262 261 257 240 217 203 202 199 199 200 200 201 203 205 207
293 298 296 296 280 264 248 236 230 228 229 233 239 249 258 262 260 252 251 242 218 200 199 204 203 201 198 199 201 207 209 210
293 296 300 300 282 262 245 234 230 227 227 230 236 244 251 255 253 246 240 235 222 210 205 202 200 199 199 202 205 207 210 213
294 295 297 299 289 263 243 233 230 227 226 229 234 239 245 248 248 241 237 232 227 215 208 206 202 198 202 205 207 210 212 214
295 295 294 295 287 266 244 236 231 228 226 227 232 236 242 246 245 242 237 236 226 218 212 208 204 205 208 210 211 212 214 216
295 296 293 295 285 268 244 236 230 229 224 224 229 233 237 240 242 241 240 232 226 220 219 216 214 212 214 213 216 216 217 218
294 295 295 295 289 266 241 234 230 228 221 222 225 230 233 236 239 239 237 231 229 228 229 227 221 217 216 216 220 221 220 222
291 293 294 297 290 265 239 231 225 223 216 218 222 227 228 230 233 237 236 235 236 235 235 235 231 224 223 222 221 223 223 225
290 291 295 293 288 266 235 227 224 216 214 215 220 223 223 224 226 232 236 238 237 236 240 245 237 227 224 222 224 223 223 224
289 297 300 286 282 263 229 225 220 212 211 213 216 219 218 219 221 226 235 238 233 231 241 250 233 224 220 220 222 225 226 228
289 297 298 289 271 251 234 222 217 210 211 212 214 215 215 215 217 222 228 232 225 224 235 238 223 211 209 214 221 220 221 224
284 293 297 285 262 244 234 221 214 210 210 211 212 213 213 213 213 216 220 219 219 218 218 214 204 199 208 208 216 210 209 214
282 288 291 283 262 243 233 223 214 210 210 211 210 210 211 211 211 211 213 210 208 207 204 200 194 192 184 196 197 192 196 198
278 281 286 287 265 241 233 226 219 211 210 211 210 209 210 210 209 209 210 208 204 199 197 191 187 186 182 184 187 188 193 193
269 277 284 279 267 245 236 229 219 212 212 211 210 209 210 209 209 208 209 208 206 202 196 194 189 187 183 182 180 189 197 204